Location: Falniów
(50.3639°N, 19.9642°E)
Time: 12:28:55
(UTC+00:00)

Cosmos 2082 Rocket - Pass Details

Date: 20 April 2026
Orbit: 831 x 853 km, 71.0° (Epoch: 19 May)

Event Time Altitude Azimuth Distance (km) Brightness Sun altitude
Exits shadow 23:32:33 45° 116° (ESE) 1,155 2.7 -26.8°
Maximum altitude 23:32:47 45° 109° (ESE) 1,151 2.8 -26.7°
Drops below altitude 10° 23:38:11 10° 39° (NE) 2,493 5.5 -26.5°
Sets 23:40:44 0° 33° (NNE) 3,433 6.5 -26.4°
